When you browse on this site, cookies collect data to enhance your experience and personalize the content and advertising you see.
Visit our Privacy Policy to learn more. By continuing to use the site, you agree to this use of cookies and data.
  • In Belgium
  • List of Countries
  • For 7 days
  • Water Temperature
  • Satellite Maps
  • Weather Map
  • Weather Widgets
  • user-avatar
    Login

    Hourly Weather Zhdenevo

    Today, 10 December, Monday

    Time Temperature Precipitation Wind Pressure Humidity
    00:00 -1°C° 0.4 mm 2 mps 703 mmHg 100%
    01:00 0°C° 0.5 mm 3 mps 703 mmHg 100%
    02:00 +2°C° 0 mm 1 mps 703 mmHg 100%
    03:00 -1°C° 0.2 mm 2 mps 703 mmHg 100%
    04:00 -1°C° 0.6 mm 2 mps 703 mmHg 100%
    05:00 -1°C° 0.8 mm 3 mps 703 mmHg 100%
    06:00 -1°C° 0.7 mm 3 mps 703 mmHg 100%
    07:00 -1°C° 0.5 mm 3 mps 703 mmHg 100%
    08:00 -1°C° 0.3 mm 2 mps 704 mmHg 100%
    09:00 -1°C° 0.4 mm 2 mps 704 mmHg 100%
    10:00 -1°C° 0.3 mm 2 mps 704 mmHg 100%
    11:00 +1°C° 0.2 mm 2 mps 704 mmHg 100%
    12:00 +1°C° 0.1 mm 2 mps 705 mmHg 100%
    13:00 +1°C° 0 mm 2 mps 705 mmHg 100%
    14:00 +1°C° 0 mm 2 mps 705 mmHg 100%
    15:00 +1°C° 0 mm 2 mps 705 mmHg 100%
    16:00 +1°C° 0 mm 2 mps 706 mmHg 100%
    17:00 -1°C° 0 mm 2 mps 706 mmHg 100%
    18:00 -1°C° 0 mm 2 mps 706 mmHg 100%
    19:00 -1°C° 0 mm 2 mps 706 mmHg 100%
    20:00 -2°C° 0 mm 2 mps 706 mmHg 100%
    21:00 -2°C° 0 mm 3 mps 706 mmHg 100%
    22:00 -2°C° 0 mm 2 mps 706 mmHg 100%
    23:00 0°C° 0 mm 1 mps 707 mmHg 100%

    Tomorrow, 11 December, Tuesday

    Time Temperature Precipitation Wind Pressure Humidity
    00:00 -1°C° 0 mm 1 mps 707 mmHg 100%
    01:00 -1°C° 0 mm 1 mps 707 mmHg 100%
    02:00 -1°C° 0.1 mm 1 mps 707 mmHg 100%
    03:00 -1°C° 0 mm 1 mps 707 mmHg 100%
    04:00 -1°C° 0 mm 1 mps 707 mmHg 100%
    05:00 -1°C° 0 mm 1 mps 707 mmHg 100%
    06:00 -2°C° 0 mm 1 mps 707 mmHg 100%
    07:00 -2°C° 0 mm 1 mps 707 mmHg 100%
    08:00 -3°C° 0 mm 0 mps 707 mmHg 100%
    09:00 -2°C° 0 mm 1 mps 708 mmHg 100%
    10:00 -2°C° 0 mm 1 mps 708 mmHg 100%
    11:00 -2°C° 0 mm 1 mps 708 mmHg 100%
    12:00 -1°C° 0 mm 1 mps 708 mmHg 100%
    13:00 -1°C° 0 mm 1 mps 708 mmHg 100%
    14:00 -1°C° 0 mm 1 mps 708 mmHg 100%
    15:00 0°C° 0 mm 1 mps 708 mmHg 100%
    16:00 -2°C° 0 mm 2 mps 708 mmHg 100%
    17:00 -3°C° 0.1 mm 2 mps 709 mmHg 100%
    18:00 -3°C° 0.1 mm 2 mps 709 mmHg 100%
    19:00 -3°C° 0.1 mm 2 mps 709 mmHg 100%
    20:00 -3°C° 0 mm 2 mps 709 mmHg 100%
    21:00 -4°C° 0 mm 2 mps 709 mmHg 100%
    22:00 -4°C° 0 mm 2 mps 709 mmHg 100%
    23:00 -4°C° 0 mm 2 mps 709 mmHg 100%

    Day after tomorrow, 12 December, Wednesday

    Time Temperature Precipitation Wind Pressure Humidity
    00:00 -4°C° 0 mm 2 mps 709 mmHg 100%
    01:00 -2°C° 0 mm 1 mps 709 mmHg 100%
    02:00 -3°C° 0 mm 1 mps 709 mmHg 100%
    03:00 -3°C° 0 mm 1 mps 709 mmHg 100%
    04:00 -3°C° 0 mm 1 mps 709 mmHg 100%
    05:00 -4°C° 0 mm 0 mps 709 mmHg 100%
    06:00 -4°C° 0 mm 0 mps 709 mmHg 100%
    07:00 -3°C° 0 mm 1 mps 709 mmHg 100%
    08:00 -3°C° 0 mm 1 mps 709 mmHg 100%
    09:00 -5°C° 0 mm 2 mps 709 mmHg 100%
    10:00 -5°C° 0 mm 2 mps 710 mmHg 98%
    11:00 -4°C° 0 mm 2 mps 710 mmHg 98%
    12:00 -4°C° 0 mm 2 mps 710 mmHg 99%
    13:00 -3°C° 0 mm 2 mps 710 mmHg 98%
    14:00 -4°C° 0 mm 3 mps 710 mmHg 97%
    15:00 -3°C° 0 mm 2 mps 710 mmHg 97%
    16:00 -3°C° 0 mm 2 mps 710 mmHg 97%
    17:00 -4°C° 0 mm 2 mps 710 mmHg 99%
    18:00 -5°C° 0 mm 3 mps 709 mmHg 99%
    19:00 -5°C° 0 mm 3 mps 709 mmHg 99%
    20:00 -5°C° 0 mm 3 mps 709 mmHg 99%
    21:00 -4°C° 0 mm 2 mps 709 mmHg 98%
    22:00 -4°C° 0 mm 2 mps 709 mmHg 99%
    23:00 -4°C° 0 mm 2 mps 709 mmHg 99%

    13 December, Thursday

    Time Temperature Precipitation Wind Pressure Humidity
    00:00 -4°C° 0.1 mm 2 mps 709 mmHg 100%
    01:00 -4°C° 0.1 mm 2 mps 709 mmHg 100%
    02:00 -4°C° 0.2 mm 2 mps 709 mmHg 100%
    03:00 -4°C° 0.3 mm 2 mps 709 mmHg 100%
    04:00 -4°C° 0.2 mm 2 mps 708 mmHg 100%
    05:00 -4°C° 0.2 mm 2 mps 708 mmHg 100%
    06:00 -5°C° 0.3 mm 2 mps 708 mmHg 100%
    07:00 -5°C° 0.2 mm 2 mps 708 mmHg 100%
    08:00 -3°C° 0.1 mm 1 mps 708 mmHg 100%
    09:00 -2°C° 0.1 mm 1 mps 708 mmHg 100%
    10:00 -2°C° 0.1 mm 1 mps 708 mmHg 100%
    11:00 -2°C° 0 mm 1 mps 709 mmHg 100%
    12:00 -1°C° 0 mm 1 mps 709 mmHg 100%
    13:00 -1°C° 0 mm 1 mps 709 mmHg 100%
    14:00 -1°C° 0.1 mm 1 mps 709 mmHg 100%
    15:00 -1°C° 0.1 mm 1 mps 709 mmHg 100%
    16:00 -1°C° 0.2 mm 1 mps 709 mmHg 100%
    17:00 -1°C° 0.3 mm 1 mps 709 mmHg 100%
    18:00 -1°C° 0.1 mm 1 mps 709 mmHg 100%
    19:00 -2°C° 0 mm 1 mps 710 mmHg 100%
    20:00 -2°C° 0 mm 1 mps 710 mmHg 99%
    21:00 -3°C° 0 mm 1 mps 710 mmHg 99%
    22:00 -3°C° 0 mm 1 mps 711 mmHg 99%
    23:00 -4°C° 0 mm 1 mps 711 mmHg 99%

    14 December, Friday

    Time Temperature Precipitation Wind Pressure Humidity
    00:00 -4°C° 0 mm 1 mps 711 mmHg 99%
    01:00 -4°C° 0 mm 1 mps 711 mmHg 99%
    02:00 -4°C° 0 mm 1 mps 712 mmHg 99%

    15 December, Saturday

    Time Temperature Precipitation Wind Pressure Humidity
    Show more